Regional Weather Roundup
Issued by NWS Albany, NY

Home | Current Version | Previous Version | Text Only | Print | Product List | Glossary On
Versions: 1 2 3 4 5 6 7 8 9 10 11 12 13 14 15 16 17 18 19 20 21 22 23 24 25 26 27 28 29 30 31 32 33 34 35 36 37 38 39 40 41 42 43 44 45 46 47 48 49 50
200
ASUS41 KALY 260010
RWRALY

NEW YORK STATE HOURLY WEATHER ROUNDUP
NATIONAL WEATHER SERVICE ALBANY NY
800 PM EDT WED APR 25 2018

NOTE: "FAIR" INDICATES FEW OR NO CLOUDS BELOW 12,000 FEET WITH NO
SIGNIFICANT WEATHER AND/OR NO OBSTRUCTIONS TO VISIBILITY.

NYZ032-033-038>043-046>054-057>066-NYZ062>081-082-084-260100-
EAST


CITY           SKY/WX    TMP DP  RH WIND       PRES   REMARKS
ALBANY         DRIZZLE   56  53  90 NW3       29.68S FOG
GLENS FALLS    LGT RAIN  53  52  96 N9        29.68F
POUGHKEEPSIE   CLOUDY    59  55  87 CALM      29.66S
NEWBURGH       CLOUDY    57  57 100 CALM      29.68S FOG
MONTGOMERY     LGT RAIN  57  56  96 N5        29.65F FOG
WHITE PLAINS   FOG       55  55 100 E6        29.66F VSB<1/4
ISLIP          DRZL/FOG  56  56 100 SE7       29.68S VSB 1/2
NEW YORK CITY  DRZL/FOG  54  52  93 NE7       29.66F VSB 1/2
CENTRAL PARK   CLOUDY    56  55  97 CALM      29.69S FOG
$$

NYZ005>009-017-018-044>046-055-056-260100-
CENTRAL


CITY           SKY/WX    TMP DP  RH WIND       PRES   REMARKS
FULTON         LGT RAIN  53  52  96 W3        29.71R FOG
SYRACUSE       LGT RAIN  52  52 100 CALM      29.70S
ROME           CLOUDY    53  53 100 CALM      29.71S
ELMIRA         CLOUDY    56  54  93 W5        29.71R
BINGHAMTON     CLOUDY    52  52 100 NW3       29.69S FOG
MONTICELLO     CLOUDY    54  54 100 CALM      29.70S FOG
$$

NYZ026>034-041>043-087-260100-
NORTH


CITY           SKY/WX    TMP DP  RH WIND       PRES   REMARKS
WATERTOWN      LGT RAIN  51  51 100 W5        29.69S
FORT DRUM      NOT AVBL
OGDENSBURG     DRIZZLE   55  54  96 CALM      29.69S
MASSENA        RAIN      53  53 100 NE6       29.71F FOG
SARANAC LAKE   RAIN      48  48 100 NE3       29.68F FOG
PLATTSBURGH    LGT RAIN  52  50  93 CALM      29.72F
$$

NYZ001>004-010>016-019>021-085-260100-
WEST


CITY           SKY/WX    TMP DP  RH WIND       PRES   REMARKS
NIAGARA FALLS  LGT RAIN  50  45  83 W15       29.76R
BUFFALO        LGT RAIN  42  42 100 SW12      29.76S FOG
DUNKIRK        CLOUDY    44  43  96 SW13      29.82R
JAMESTOWN      FOG       42  41  96 W17       29.82R VSB 1/4
WELLSVILLE     CLOUDY    50  48  93 NW13      29.76R
ROCHESTER      CLOUDY    52  50  93 W9        29.73S
PENN YAN       CLOUDY    54  49  83 CALM      29.72S
$$

             KEY
       WCI = WIND CHILL INDEX
       VSB = VISIBILITY
       HX  = HEAT INDEX
$$




USA.gov is the U.S. government's official web portal to all federal, state and local government web resources and services.